Preview of NWS' New Version of Forecast
This preview is not operational and should not be used for support decisions.

Regional Weather Roundup (RWR)

Issued by National Weather Service (NWS)

                            
000
ASUS46 KPQR 231810
RWROR 

OREGON REGIONAL WEATHER ROUNDUP
NATIONAL WEATHER SERVICE PORTLAND OR
1100 AM PDT SAT MAR 23 2019

NOTE: "FAIR" INDICATES FEW OR NO CLOUDS BELOW 12,000 FEET WITH
NO SIGNIFICANT WEATHER AND/OR OBSTRUCTIONS TO VISIBILITY.

ORZ001>013-231900-
NORTHWEST OREGON

  
CITY           SKY/WX    TMP DP  RH WIND       PRES   REMARKS
ASTORIA        CLOUDY    52  45  77 N7        30.17R                  
6HR MIN TEMP:  38; 6HR MAX TEMP:  52;                                

TILLAMOOK      CLOUDY    50  45  81 CALM      30.19S                  
NEWPORT        CLOUDY    52  45  76 S6        30.20S                  
PORTLAND       PTSUNNY   52  46  80 E7        30.19R                  
6HR MIN TEMP:  46; 6HR MAX TEMP:  52; 6HR PCP:  0.01;                

VANCOUVER WA     N/A     51  46  83 E3        30.19R                  
SCAPPOOSE      CLOUDY    52  46  80 NE3       30.19R                  
6HR MIN TEMP:  41; 6HR MAX TEMP:  52; 6HR PCP:  0.01;                

HILLSBORO      CLOUDY    50  45  83 CALM      30.19R                  
6HR MIN TEMP:  44; 6HR MAX TEMP:  50; 6HR PCP: TRACE;                

AURORA         CLOUDY    50  46  86 S5        30.20R                  
6HR MIN TEMP:  43; 6HR MAX TEMP:  50; 6HR PCP: TRACE;                

MCMINNVILLE    CLOUDY    48  45  89 CALM      30.19R                  
6HR MIN TEMP:  43; 6HR MAX TEMP:  48;                                

SALEM          CLOUDY    52  46  80 S8        30.18R                  
6HR MIN TEMP:  40; 6HR MAX TEMP:  52; 6HR PCP: TRACE;                

CORVALLIS      MOSUNNY   48  47  96 E5        30.19S                  
EUGENE         PTSUNNY   50  44  80 CALM      30.19R                  
6HR MIN TEMP:  39; 6HR MAX TEMP:  51; 6HR PCP: TRACE;                

$$

ORZ021-028-231900-
SOUTHWEST OREGON

  
CITY           SKY/WX    TMP DP  RH WIND       PRES   REMARKS
NORTH BEND     PTSUNNY   52  47  83 MISG      30.21R                  
6HR MIN TEMP:  45; 6HR MAX TEMP:  52; 6HR PCP:  0.02;                

BROOKINGS      PTSUNNY   50  46  86 VRB3      30.20R                  
ROSEBURG       CLOUDY    48  44  86 CALM      30.19R                  
6HR MIN TEMP:  45; 6HR MAX TEMP:  48;                                

SEXTON SUMMIT  CLOUDY    36  35  96 VRB3      30.12R FOG              
6HR MIN TEMP:  34; 6HR MAX TEMP:  36; 6HR PCP: TRACE;                

GRANTS PASS    LGT RAIN  45  43  93 CALM      30.21R                  
MEDFORD        CLOUDY    47  41  80 N5        30.17R                  
6HR MIN TEMP:  42; 6HR MAX TEMP:  47; 6HR PCP:  0.20;                

$$

ORZ014>016-041-231900-
COLUMBIA GORGE

  
CITY           SKY/WX    TMP DP  RH WIND       PRES   REMARKS
TROUTDALE      CLOUDY    50  45  83 VRB3      30.19R                  
6HR MIN TEMP:  44; 6HR MAX TEMP:  50; 6HR PCP:  0.01;                

HOOD RIVER     CLOUDY    50  41  71 CALM      30.17R                  
THE DALLES     CLOUDY    51  42  71 NW6       30.15F                  
6HR MIN TEMP:  41; 6HR MAX TEMP:  52;                                

$$

ORZ029>031-041-044-049-050-061>064-502-503-505>511-231900-
EASTERN OREGON

  
CITY           SKY/WX    TMP DP  RH WIND       PRES   REMARKS
MADRAS         PTSUNNY   43  36  75 W3        30.15S                  
REDMOND        CLOUDY    46  33  60 N7        30.11S                  
6HR MIN TEMP:  34; 6HR MAX TEMP:  46;                                

BEND           CLOUDY    43  34  70 N5        30.11S                  
PRINEVILLE     CLOUDY    43  37  81 W8        30.11R                  
KLAMATH FALLS  CLOUDY    39  35  86 CALM      30.09R                  
6HR MIN TEMP:  34; 6HR MAX TEMP:  39; 6HR PCP:  0.05;                

LAKEVIEW       LGT SNOW  34  32  93 CALM      30.07S VSB 3/4          
HERMISTON      MOSUNNY   57  39  51 W10       30.12S                  
6HR MIN TEMP:  45; 6HR MAX TEMP:  57; 6HR PCP: TRACE;                

PENDLETON      CLOUDY    52  36  54 W10       30.12S                  
6HR MIN TEMP:  45; 6HR MAX TEMP:  52; 6HR PCP: TRACE;                

JOHN DAY       CLOUDY    48  40  74 NW6       30.08S                  
MEACHAM        LGT RAIN  39  35  86 VRB3      30.10S                  
6HR MIN TEMP:  34; 6HR MAX TEMP:  40; 6HR PCP:  0.07;                

LA GRANDE      LGT RAIN  46  40  79 W10       30.11S                  
6HR MIN TEMP:  40; 6HR MAX TEMP:  46; 6HR PCP: TRACE;                

BAKER CITY     CLOUDY    50  39  66 NW12      30.08S                  
6HR MIN TEMP:  38; 6HR MAX TEMP:  50; 6HR PCP: TRACE;                

BURNS          LGT RAIN  43  35  73 N8        30.07F                  
6HR MIN TEMP:  35; 6HR MAX TEMP:  43; 6HR PCP:  0.01;                

ROME             N/A     44  38  79 CALM      30.03S                  
6HR MIN TEMP:  39; 6HR MAX TEMP:  44; 6HR PCP:  0.05;                

ONTARIO        CLOUDY    56  39  53 NW7       30.06F                  
6HR MIN TEMP:  41; 6HR MAX TEMP:  57;                                

$$